DELTA 1 DEB, 7164

Orbit data source: Space-Track

DELTA 1 DEB, 7164 is space debris in SSO originally from a launch on Tue, 06 Nov 1973 UTC launched from the Air Force Western Test Range (AFWTR). Debris objects in space refer to the collection of defunct objects orbiting the Earth. Examples of debris include non-operational satellites, rocket bodies, and fragments generated from explosions, collisions, or faulty payload assembly.

Loading next visibility...
Identifier
7164, 1973-086EC
Orbit
SSO
Country
Flag of USUS
Related business
Manufacturer
Unknown
Mission
Spacecraft
Bus & Motor
Unknown
Mass
Unknown
Launch date (UTC)
1973-11-06 (52 years ago)
Launch vehicle
Unknown
Launch site
Air Force Western Test Range (AFWTR)
Object type
Payload
Rocket body
Debris
Shape & HBR
Unknown shape, 0.3 m
Radar Cross Section
Small (<0.1 m²)

Expand to show TLE details & history
Last TLE update: 13 hours ago

TLE from 13 hours ago
0 DELTA 1 DEB
1  7164U 73086EC  25294.59084888  .00000672  00000-0  32691-2 0  9992
2  7164 101.0927 326.3043 0085776   2.2624 149.4089 12.76125753408310
Epoch: 2025-10-21T14:10Z
TLE epoch observation values (Epoch: 2025-10-21T14:10:49.343Z)
Latitude
27.30744°
Longitude
-90.89685°
Altitude
1,417.456 km
Speed
7.128 km/s
True Right ascension
10h 08m 20s
True Declination
27° 10' 46"
Sunlit
Object was in daylight at epoch
Visualization orbit readout
Latitude
Unknown
Longitude
Unknown
Altitude
Unknown
Speed
Unknown
Apparent Right ascension
Unknown
Apparent Declination
Unknown
Sunlit
N/A
Visualization observer readout
Local Sidereal Time
22:03:29
Azimuth
Unknown
Elevation
Unknown
Doppler factor
Unknown
Orbital elements
Apogee altitude
1,420.889 km
Perigee altitude
1,288.233 km
Semi-major axis
7,732.698 km
Eccentricity
0.00858
Inclination
101.0927°
RAAN
326.3043°
Arg. of periapsis
2.2624°
True anomaly
149.90453°
Mean anomaly
149.4089°
Eccentric anomaly
149.65717°
Mean motion
3.19188 °/min
Orbital period
112.79 mins
BSTAR
0.0032691
Loading maneuver chart data...
Computing Atmospheric mass density...
Loading historical data...
Loading historical data...
Loading historical data...
Loading historical data...
Loading historical data...
Loading historical data...
Loading historical data...

Documentation

Showing up to 5 results
|